SHENZHOU-23

导读 | 豆包AI

神舟二十三号(SHENZHOU-23,NORAD编号69180)是中国神舟系列载人飞船,于2026年5月24日搭载长征二号F遥二十三运载火箭在酒泉卫星发射中心成功发射,进入预定轨道,是中国载人航天第40次发射任务。飞船完成多项技术升级,舷窗采用三重防烧蚀设计提升抗撞击能力,载荷下行能力翻倍至100公斤以上,优化舱内布局、升级导航控制系统与生命保障系统,综合性能达到国际领先水平。本次任务航天员乘组将开展空间冷原子钟测试、植物太空生长研究等多项科学实验,是中国空间站常态化运营阶段的重要任务。

基本信息
目录编号:
69180
目录名称:
SHENZHOU-23
国际标识:
2026-113A
轨道中心:
EARTH
卫星名称:
SHENZHOU-23
卫星全名:
SHENZHOU-23
卫星状态:
在轨 (已飞行2 天)
发射日期:
2026-05-24 UTC
国别 :
中国 (CN)
星等 :
--
轨道信息
数据来源 国际轨道数据
星历时间: 2026-05-26T13:09:33+0800
13小时前
查看轨道信息
半长轴: 6766.269km
偏心率: 0.0010996
轨道倾角: 41.468°
近地点辐角 283.302°
升交点赤经 95.620°
平近点角 76.659°
近地点: 380.691km
远地点: 395.573km
周期: 92.317分钟
每日圈数: 15.598358
详细信息
使用方式:
暂无
2D轨道图
3D轨道图
轨道高度分析图
轨道倾角分析图
轨道综合分析图
查看轨道综合分析图